Location: Unspecified
(0.0000°N, 0.0000°E)
Time: 00:45:08
(UTC+00:00)

N. Korean satellite - Pass Details

Date: 10 August 2021
Orbit: 448 x 498 km, 97.3° (Epoch: 24 September)

Event Time Altitude Azimuth Distance (km) Brightness Sun altitude
Rises 04:37:33 0° 22° (NNE) 2,448 10.7 -21.1°
Reaches altitude 10° 04:39:39 10° 29° (NNE) 1,574 9.8 -20.6°
Maximum altitude 04:42:51 41° 101° (E) 657 7.6 -19.9°
Drops below altitude 10° 04:46:03 10° 173° (S) 1,575 9.1 -19.1°
Enters shadow 04:46:18 - 174° (S) 1,681 9.2 -19.0°
